FW8705 Weather Reports


Display with metric or nautical units.
time (UTC)temp
F
wind
direction
speed
MPH
gust
MPH
rain 1hr
in
rain 24hr
in
rain mn
in
humidity
%
barometer
mb
20260504060107 59 0 0.0 3.0 0.00 0.00 0.00 58 1015.5
20260504050108 47 0 0.0 0.0 0.00 0.00 0.00 79 1015.8
20260504044555 45 0 0.0 0.0 0.00 0.00 0.00 80 1015.8
20260504043103 44 0 0.0 0.0 0.00 0.00 0.00 82 1015.8
20260504041555 43 0 0.0 0.0 0.00 0.00 0.00 83 1015.6
20260504034611 43 0 0.0 0.0 0.00 0.00 0.00 82 1015.4
20260504033059 43 0 0.0 0.0 0.00 0.00 0.00 81 1015.5
20260504031605 43 0 0.0 0.0 0.00 0.00 0.00 81 1015.3
20260504030113 44 0 0.0 0.0 0.00 0.00 0.00 80 1015.4
20260504024556 45 0 0.0 0.0 0.00 0.00 0.00 78 1015.3
20260504023054 46 0 0.0 0.0 0.00 0.00 0.00 76 1015.2
20260504021605 46 0 0.0 0.0 0.00 0.00 0.00 76 1015.3
20260504020059 47 0 0.0 0.0 0.00 0.00 0.00 73 1015.1
20260504014556 49 0 0.0 0.0 0.00 0.00 0.00 71 1015.1
20260504013054 49 0 0.0 0.0 0.00 0.00 0.00 70 1015.2
20260504011555 50 0 0.0 0.0 0.00 0.00 0.00 67 1015.1
20260504010053 51 0 0.0 0.0 0.00 0.00 0.00 65 1015.1
20260504004554 51 0 0.0 0.0 0.00 0.00 0.00 65 1015.0
20260504003054 52 0 0.0 0.0 0.00 0.00 0.00 65 1015.0
20260504001555 53 0 0.0 0.0 0.00 0.00 0.00 64 1015.2
20260504000136 53 0 0.0 0.0 0.00 0.00 0.00 62 1015.3
20260503234555 53 0 0.0 0.0 0.00 0.00 0.00 61 1015.2
20260503233058 53 0 0.0 0.0 0.00 0.00 0.00 60 1015.5
20260503231552 54 0 0.0 0.0 0.00 0.00 0.00 59 1015.5
20260503230139 55 0 0.0 0.0 0.00 0.00 0.00 58 1015.5
20260503224553 57 0 0.0 0.0 0.00 0.00 0.00 55 1015.5
20260503223055 58 0 0.0 0.0 0.00 0.00 0.00 53 1015.5
20260503221554 59 0 0.0 0.0 0.00 0.00 0.00 52 1015.5
20260503220052 59 0 0.0 0.0 0.00 0.00 0.00 50 1015.8
20260503214556 60 0 0.0 0.0 0.00 0.00 0.00 49 1015.8
20260503213054 61 0 0.0 0.0 0.00 0.00 0.00 48 1015.8
20260503211552 62 0 0.0 0.0 0.00 0.00 0.00 47 1015.8
20260503210051 62 0 0.0 2.0 0.00 0.00 0.00 46 1015.9
20260503204557 63 0 0.0 0.0 0.00 0.00 0.00 45 1015.9
20260503203052 63 0 0.0 5.0 0.00 0.00 0.00 44 1015.8
20260503201554 63 169 0.0 2.0 0.00 0.00 0.00 45 1015.8
20260503200101 63 0 0.0 2.0 0.00 0.00 0.00 45 1015.9
20260503194603 64 0 0.0 4.0 0.00 0.00 0.00 45 1015.7
20260503193056 64 0 0.0 1.0 0.00 0.00 0.00 47 1015.8
20260503191559 65 0 0.0 1.0 0.00 0.00 0.00 48 1015.8
20260503190059 66 0 0.0 0.0 0.00 0.00 0.00 47 1015.7
20260503184613 67 0 0.0 0.0 0.00 0.00 0.00 47 1015.4
20260503183101 69 0 0.0 0.0 0.00 0.00 0.00 47 1015.2
20260503181557 70 0 0.0 1.0 0.00 0.00 0.00 44 1015.1
20260503180056 71 0 0.0 3.0 0.00 0.00 0.00 43 1015.1
20260503174602 72 171 0.0 5.0 0.00 0.00 0.00 40 1015.1
20260503173100 74 0 0.0 7.0 0.00 0.00 0.00 38 1015.1
20260503171613 75 0 2.0 6.0 0.00 0.00 0.00 36 1015.1
20260503170107 75 167 0.0 7.0 0.00 0.00 0.00 36 1015.0
20260503090120 68 236 1.0 11.0 0.00 0.00 0.00 48 1019.1
20260503081555 66 193 2.0 7.0 0.00 0.00 0.00 51 1019.3
20260503080110 65 0 1.0 6.0 0.00 0.00 0.00 52 1019.2